Terminal Aerodrome Forecast
Issued by NWS Charleston, WV

Home | Current Version | Previous Version | Text Only | Print | Product List | Glossary On
Versions: 1 2 3 4 5 6 7 8 9 10 11 12 13 14 15 16 17 18 19 20 21 22 23 24 25 26 27 28 29 30 31 32 33 34 35 36 37 38 39 40 41 42 43 44 45 46 47 48 49 50
000
FTUS41 KRLX 150235 AAD
TAFEKN
TAF AMD
KEKN 150235Z 1503/1524 27008G15KT P6SM OVC015
      TEMPO 1503/1504 -SN OVC008
     FM150400 27009G22KT 6SM -SN OVC015
      TEMPO 1504/1507 4SM -SN
     FM150700 27011G21KT 4SM -SN OVC020
     FM151800 27009G18KT P6SM OVC013
     FM152100 27005KT P6SM SCT021
     FM152300 VRB03KT P6SM BKN250=

USA.gov is the U.S. government's official web portal to all federal, state and local government web resources and services.